| time (UTC) | temp F | wind direction | speed MPH | gust MPH | rain 1hr in | rain 24hr in | rain mn in | humidity % | barometer mb |
| 20260502220001 | 52 | 0.0 | 0.0 | 0.00 | 0.00 | 0.00 | 64 | 1019.7 | |
| 20260502215001 | 53 | 0.0 | 0.0 | 0.00 | 0.00 | 0.00 | 62 | 1019.8 | |
| 20260502212000 | 55 | 0.0 | 0.0 | 0.00 | 0.00 | 0.00 | 57 | 1020.1 | |
| 20260502211000 | 55 | 0.0 | 0.0 | 0.00 | 0.00 | 0.00 | 56 | 1020.0 | |
| 20260502210000 | 56 | 0.0 | 0.0 | 0.00 | 0.00 | 0.00 | 54 | 1020.1 | |
| 20260502205000 | 57 | 0.0 | 0.0 | 0.00 | 0.00 | 0.00 | 52 | 1020.1 | |
| 20260502204000 | 58 | 0.0 | 0.0 | 0.00 | 0.00 | 0.00 | 51 | 1020.2 | |
| 20260502203000 | 58 | 0.0 | 0.0 | 0.00 | 0.00 | 0.00 | 51 | 1020.2 | |
| 20260502202000 | 58 | 0.0 | 0.0 | 0.00 | 0.00 | 0.00 | 51 | 1020.3 | |
| 20260502201000 | 58 | 0.0 | 0.0 | 0.00 | 0.00 | 0.00 | 50 | 1020.3 | |
| 20260502200000 | 59 | 0.0 | 0.0 | 0.00 | 0.00 | 0.00 | 49 | 1020.4 | |
| 20260502195000 | 59 | 0.0 | 0.0 | 0.00 | 0.00 | 0.00 | 49 | 1020.5 | |
| 20260502193000 | 61 | 0.0 | 0.0 | 0.00 | 0.00 | 0.00 | 48 | 1020.5 | |
| 20260502192000 | 61 | 0.0 | 0.0 | 0.00 | 0.00 | 0.00 | 47 | 1020.5 | |
| 20260502191000 | 61 | 0.0 | 0.0 | 0.00 | 0.00 | 0.00 | 47 | 1020.5 | |
| 20260502190000 | 62 | 0.0 | 0.0 | 0.00 | 0.00 | 0.00 | 47 | 1020.3 | |
| 20260502185001 | 62 | 0.0 | 0.0 | 0.00 | 0.00 | 0.00 | 47 | 1020.4 | |
| 20260502184001 | 63 | 0.0 | 0.0 | 0.00 | 0.00 | 0.00 | 46 | 1020.4 | |
| 20260502183001 | 63 | 0.0 | 0.0 | 0.00 | 0.00 | 0.00 | 45 | 1020.3 | |
| 20260502182001 | 64 | 0.0 | 0.0 | 0.00 | 0.00 | 0.00 | 44 | 1020.3 | |
| 20260502164001 | 69 | 0.0 | 0.0 | 0.00 | 0.00 | 0.00 | 39 | 1020.1 | |
| 20260502163001 | 70 | 0.0 | 0.0 | 0.00 | 0.00 | 0.00 | 38 | 1020.2 | |
| 20260502162001 | 70 | 0.0 | 0.0 | 0.00 | 0.00 | 0.00 | 37 | 1020.1 | |
| 20260502161001 | 70 | 0.0 | 0.0 | 0.00 | 0.00 | 0.00 | 37 | 1020.4 | |
| 20260502152000 | 71 | 0.0 | 0.0 | 0.00 | 0.00 | 0.00 | 35 | 1020.7 | |
| 20260502151000 | 71 | 0.0 | 0.0 | 0.00 | 0.00 | 0.00 | 34 | 1020.8 | |
| 20260502123000 | 72 | 0.0 | 0.0 | 0.00 | 0.00 | 0.00 | 33 | 1022.3 | |
| 20260502122001 | 74 | 0.0 | 0.0 | 0.00 | 0.00 | 0.00 | 32 | 1022.4 | |
| 20260502121001 | 73 | 0.0 | 0.0 | 0.00 | 0.00 | 0.00 | 31 | 1022.5 | |
| 20260502115001 | 77 | 0.0 | 0.0 | 0.00 | 0.00 | 0.00 | 32 | 1022.7 | |
| 20260502114001 | 84 | 0.0 | 0.0 | 0.00 | 0.00 | 0.00 | 30 | 1022.8 | |
| 20260502112001 | 77 | 0.0 | 0.0 | 0.00 | 0.00 | 0.00 | 32 | 1023.0 | |
| 20260502111001 | 81 | 0.0 | 0.0 | 0.00 | 0.00 | 0.00 | 30 | 1023.3 | |
| 20260502110001 | 81 | 0.0 | 0.0 | 0.00 | 0.00 | 0.00 | 31 | 1023.3 | |
| 20260502105001 | 79 | 0.0 | 0.0 | 0.00 | 0.00 | 0.00 | 31 | 1023.4 | |
| 20260502104001 | 81 | 0.0 | 0.0 | 0.00 | 0.00 | 0.00 | 30 | 1023.5 | |
| 20260502103001 | 83 | 0.0 | 0.0 | 0.00 | 0.00 | 0.00 | 31 | 1023.6 | |
| 20260502102001 | 80 | 0.0 | 0.0 | 0.00 | 0.00 | 0.00 | 34 | 1023.7 | |
| 20260502101001 | 80 | 0.0 | 0.0 | 0.00 | 0.00 | 0.00 | 34 | 1023.7 | |
| 20260502091000 | 77 | 0.0 | 0.0 | 0.00 | 0.00 | 0.00 | 35 | 1024.3 | |
| 20260502071000 | 65 | 0.0 | 0.0 | 0.00 | 0.00 | 0.00 | 50 | 1024.9 | |
| 20260502070000 | 64 | 0.0 | 0.0 | 0.00 | 0.00 | 0.00 | 51 | 1024.8 | |
| 20260502065001 | 63 | 0.0 | 0.0 | 0.00 | 0.00 | 0.00 | 54 | 1024.8 | |
| 20260502064001 | 63 | 0.0 | 0.0 | 0.00 | 0.00 | 0.00 | 53 | 1024.8 | |
| 20260502063001 | 64 | 0.0 | 0.0 | 0.00 | 0.00 | 0.00 | 54 | 1024.8 | |
| 20260502062001 | 65 | 0.0 | 0.0 | 0.00 | 0.00 | 0.00 | 51 | 1024.8 | |
| 20260502061001 | 63 | 0.0 | 0.0 | 0.00 | 0.00 | 0.00 | 52 | 1024.9 | |
| 20260502055001 | 63 | 0.0 | 0.0 | 0.00 | 0.00 | 0.00 | 53 | 1024.8 | |
| 20260502054001 | 64 | 0.0 | 0.0 | 0.00 | 0.00 | 0.00 | 52 | 1024.8 | |
| 20260502053001 | 62 | 0.0 | 0.0 | 0.00 | 0.00 | 0.00 | 55 | 1024.9 | |
| 20260502051001 | 58 | 0.0 | 0.0 | 0.00 | 0.00 | 0.00 | 61 | 1024.9 | |
| 20260502050001 | 56 | 0.0 | 0.0 | 0.00 | 0.00 | 0.00 | 63 | 1024.8 | |
| 20260502045001 | 54 | 0.0 | 0.0 | 0.00 | 0.00 | 0.00 | 66 | 1024.8 | |
| 20260502044001 | 54 | 0.0 | 0.0 | 0.00 | 0.00 | 0.00 | 68 | 1024.7 | |
| 20260502043001 | 53 | 0.0 | 0.0 | 0.00 | 0.00 | 0.00 | 70 | 1024.6 | |
| 20260502042001 | 49 | 0.0 | 0.0 | 0.00 | 0.00 | 0.00 | 82 | 1024.6 | |
| 20260502040001 | 42 | 0.0 | 0.0 | 0.00 | 0.00 | 0.00 | 97 | 1024.4 | |
| 20260502035000 | 41 | 0.0 | 0.0 | 0.00 | 0.00 | 0.00 | 97 | 24.4 | |
| 20260502034000 | 41 | 0.0 | 0.0 | 0.00 | 0.00 | 0.00 | 97 | 1024.4 | |
| 20260502033000 | 41 | 0.0 | 0.0 | 0.00 | 0.00 | 0.00 | 97 | 1024.4 | |
| 20260502032000 | 41 | 0.0 | 0.0 | 0.00 | 0.00 | 0.00 | 97 | 1024.4 | |
| 20260502031000 | 41 | 0.0 | 0.0 | 0.00 | 0.00 | 0.00 | 97 | 1024.4 | |
| 20260502030000 | 41 | 0.0 | 0.0 | 0.00 | 0.00 | 0.00 | 97 | 1024.5 | |
| 20260502025000 | 41 | 0.0 | 0.0 | 0.00 | 0.00 | 0.00 | 96 | 1024.4 | |
| 20260502024000 | 42 | 0.0 | 0.0 | 0.00 | 0.00 | 0.00 | 96 | 1024.3 | |
| 20260502023000 | 42 | 0.0 | 0.0 | 0.00 | 0.00 | 0.00 | 95 | 1024.3 | |
| 20260502022000 | 42 | 0.0 | 0.0 | 0.00 | 0.00 | 0.00 | 95 | 1024.4 | |
| 20260502020931 | 42 | 0.0 | 0.0 | 0.00 | 0.00 | 0.00 | 94 | 1024.3 | |
| 20260502020002 | 42 | 0.0 | 0.0 | 0.00 | 0.00 | 0.00 | 93 | 1024.3 | |
| 20260502015001 | 43 | 0.0 | 0.0 | 0.00 | 0.00 | 0.00 | 93 | 1024.3 | |
| 20260502014001 | 43 | 0.0 | 0.0 | 0.00 | 0.00 | 0.00 | 92 | 1024.2 | |
| 20260502013001 | 43 | 0.0 | 0.0 | 0.00 | 0.00 | 0.00 | 92 | 1024.3 | |
| 20260502012001 | 43 | 0.0 | 0.0 | 0.00 | 0.00 | 0.00 | 91 | 1024.3 | |
| 20260502011001 | 44 | 0.0 | 0.0 | 0.00 | 0.00 | 0.00 | 90 | 1024.4 | |
| 20260502010001 | 44 | 0.0 | 0.0 | 0.00 | 0.00 | 0.00 | 89 | 1024.4 | |
| 20260502005001 | 44 | 0.0 | 0.0 | 0.00 | 0.00 | 0.00 | 88 | 1024.4 | |
| 20260502004001 | 44 | 0.0 | 0.0 | 0.00 | 0.00 | 0.00 | 88 | 1024.6 | |
| 20260502003001 | 44 | 0.0 | 0.0 | 0.00 | 0.00 | 0.00 | 87 | 1024.5 | |
| 20260502002001 | 45 | 0.0 | 0.0 | 0.00 | 0.00 | 0.00 | 86 | 1024.4 | |
| 20260502001001 | 45 | 0.0 | 0.0 | 0.00 | 0.00 | 0.00 | 86 | 1024.5 | |
| 20260502000001 | 45 | 0.0 | 0.0 | 0.00 | 0.00 | 0.00 | 85 | 1024.6 | |
| 20260501235001 | 45 | 0.0 | 0.0 | 0.00 | 0.00 | 0.00 | 84 | 1024.4 | |
| 20260501234001 | 46 | 0.0 | 0.0 | 0.00 | 0.00 | 0.00 | 83 | 1024.5 | |
| 20260501233001 | 46 | 0.0 | 0.0 | 0.00 | 0.00 | 0.00 | 82 | 1024.5 | |
| 20260501232001 | 46 | 0.0 | 0.0 | 0.00 | 0.00 | 0.00 | 81 | 1024.5 | |
| 20260501231001 | 46 | 0.0 | 0.0 | 0.00 | 0.00 | 0.00 | 80 | 1024.6 | |
| 20260501230001 | 47 | 0.0 | 0.0 | 0.00 | 0.00 | 0.00 | 79 | 1024.7 | |
| 20260501225001 | 47 | 0.0 | 0.0 | 0.00 | 0.00 | 0.00 | 78 | 1024.5 | |
| 20260501224001 | 48 | 0.0 | 0.0 | 0.00 | 0.00 | 0.00 | 77 | 1024.6 | |
| 20260501223001 | 48 | 0.0 | 0.0 | 0.00 | 0.00 | 0.00 | 77 | 1024.6 | |
| 20260501222001 | 48 | 0.0 | 0.0 | 0.00 | 0.00 | 0.00 | 76 | 1024.7 | |
| 20260501221001 | 49 | 0.0 | 0.0 | 0.00 | 0.00 | 0.00 | 75 | 1024.7 |